Time,TemperatureF,DewpointF,PressureIn,WindDirection,WindDirectionDegrees,WindSpeedMPH,WindSpeedGustMPH,Humidity,HourlyPrecipIn,Conditions,Clouds,dailyrainin,SoftwareType,DateUTC
2013-02-13 00:00:00,28.0,26.3,28.82,East,90,3.5,3.5,93,0.00,CLR,SKC,0.00,WeatherDisplay:10.37,2013-02-13 05:00:00,
2013-02-13 00:02:00,28.2,26.5,28.82,SE,135,3.5,3.5,93,0.00,CLR,SKC,0.00,WeatherDisplay:10.37,2013-02-13 05:02:00,
2013-02-13 00:07:00,28.2,26.5,28.82,SE,135,3.5,3.5,93,0.00,CLR,SKC,0.00,WeatherDisplay:10.37,2013-02-13 05:07:00,
2013-02-13 00:12:00,28.9,26.9,28.82,SE,135,3.5,3.5,92,0.00,CLR,SKC,0.00,WeatherDisplay:10.37,2013-02-13 05:12:00,
2013-02-13 00:14:00,28.9,26.9,28.82,East,90,2.3,2.3,92,0.00,CLR,SKC,0.00,WeatherDisplay:10.37,2013-02-13 05:14:00,
2013-02-13 00:19:00,29.1,26.8,28.82,East,90,2.3,2.3,91,0.00,CLR,SKC,0.00,WeatherDisplay:10.37,2013-02-13 05:19:00,
2013-02-13 00:24:00,29.1,26.6,28.82,SE,135,3.1,3.1,90,0.00,CLR,SKC,0.00,WeatherDisplay:10.37,2013-02-13 05:24:00,
2013-02-13 00:29:00,28.9,26.4,28.81,East,90,3.5,3.5,90,0.00,CLR,SKC,0.00,WeatherDisplay:10.37,2013-02-13 05:29:00,
2013-02-13 00:34:00,28.8,26.2,28.82,SE,135,2.3,0.0,90,0.00,CLR,SKC,0.00,WeatherDisplay:10.37,2013-02-13 05:34:00,
2013-02-13 00:39:00,28.8,26.2,28.82,SE,135,1.2,1.2,90,0.00,CLR,SKC,0.00,WeatherDisplay:10.37,2013-02-13 05:39:00,
2013-02-13 00:44:00,28.8,26.5,28.81,SE,135,3.5,3.5,91,0.00,CLR,SKC,0.00,WeatherDisplay:10.37,2013-02-13 05:44:00,
2013-02-13 00:49:00,28.8,26.5,28.80,ESE,112,3.5,3.5,91,0.00,CLR,SKC,0.00,WeatherDisplay:10.37,2013-02-13 05:49:00,
2013-02-13 00:54:00,28.8,26.5,28.80,East,90,3.5,3.5,91,0.00,CLR,SKC,0.00,WeatherDisplay:10.37,2013-02-13 05:54:00,
2013-02-13 00:59:00,28.6,26.3,28.80,SE,135,1.2,1.2,91,0.00,CLR,SKC,0.00,WeatherDisplay:10.37,2013-02-13 05:59:00,
2013-02-13 01:04:00,28.4,26.1,28.80,SE,135,2.3,2.3,91,0.00,CLR,SKC,0.00,WeatherDisplay:10.37,2013-02-13 06:04:00,
2013-02-13 01:09:00,28.2,26.2,28.80,East,90,1.2,0.0,92,0.00,CLR,SKC,0.00,WeatherDisplay:10.37,2013-02-13 06:09:00,
2013-02-13 01:14:00,28.4,26.6,28.80,SE,135,3.5,3.5,93,0.00,CLR,SKC,0.00,WeatherDisplay:10.37,2013-02-13 06:14:00,
2013-02-13 01:19:00,28.6,26.8,28.79,SE,135,3.5,3.5,93,0.00,CLR,SKC,0.00,WeatherDisplay:10.37,2013-02-13 06:19:00,
2013-02-13 01:24:00,28.6,26.6,28.79,SE,135,3.5,3.5,92,0.00,CLR,SKC,0.00,WeatherDisplay:10.37,2013-02-13 06:24:00,
2013-02-13 01:29:00,28.6,26.6,28.79,SE,135,3.5,3.5,92,0.00,CLR,SKC,0.00,WeatherDisplay:10.37,2013-02-13 06:29:00,
2013-02-13 01:34:00,28.4,26.1,28.79,East,90,2.3,2.3,91,0.00,CLR,SKC,0.00,WeatherDisplay:10.37,2013-02-13 06:34:00,
2013-02-13 01:39:00,28.2,26.2,28.79,SE,135,3.5,3.5,92,0.00,CLR,SKC,0.00,WeatherDisplay:10.37,2013-02-13 06:39:00,
2013-02-13 01:44:00,28.4,26.4,28.79,SE,135,3.5,3.5,92,0.00,CLR,SKC,0.00,WeatherDisplay:10.37,2013-02-13 06:44:00,
2013-02-13 01:49:00,28.4,26.6,28.78,East,90,3.5,3.5,93,0.00,CLR,SKC,0.00,WeatherDisplay:10.37,2013-02-13 06:49:00,
2013-02-13 01:54:00,28.2,26.2,28.78,SE,135,2.3,2.3,92,0.00,CLR,SKC,0.00,WeatherDisplay:10.37,2013-02-13 06:54:00,
2013-02-13 01:59:00,28.2,26.2,28.78,East,90,1.2,0.0,92,0.00,CLR,SKC,0.00,WeatherDisplay:10.37,2013-02-13 06:59:00,
2013-02-13 02:04:00,28.2,26.2,28.78,East,90,0.0,0.0,92,0.00,CLR,SKC,0.00,WeatherDisplay:10.37,2013-02-13 07:04:00,
2013-02-13 02:09:00,27.5,25.5,28.77,East,90,0.0,0.0,92,0.00,CLR,SKC,0.00,WeatherDisplay:10.37,2013-02-13 07:09:00,
2013-02-13 02:14:00,27.5,25.5,28.78,SE,135,1.2,1.6,92,0.00,CLR,SKC,0.00,WeatherDisplay:10.37,2013-02-13 07:14:00,
2013-02-13 02:19:00,28.0,26.5,28.78,SE,135,2.3,2.3,94,0.00,CLR,SKC,0.00,WeatherDisplay:10.37,2013-02-13 07:19:00,
2013-02-13 02:24:00,28.2,26.7,28.77,SE,135,1.2,1.2,94,0.00,CLR,SKC,0.00,WeatherDisplay:10.37,2013-02-13 07:24:00,
2013-02-13 02:29:00,28.2,26.7,28.77,SE,135,0.0,0.0,94,0.00,CLR,SKC,0.00,WeatherDisplay:10.37,2013-02-13 07:29:00,
2013-02-13 02:34:00,28.0,26.3,28.77,SE,135,2.3,2.3,93,0.00,CLR,SKC,0.00,WeatherDisplay:10.37,2013-02-13 07:34:00,
2013-02-13 02:39:00,28.8,27.3,28.77,East,90,3.5,3.5,94,0.00,CLR,SKC,0.00,WeatherDisplay:10.37,2013-02-13 07:39:00,
2013-02-13 02:44:00,28.9,26.9,28.77,SE,135,3.5,3.5,92,0.00,CLR,SKC,0.00,WeatherDisplay:10.37,2013-02-13 07:44:00,
2013-02-13 02:49:00,28.9,26.6,28.77,SE,135,3.5,3.5,91,0.00,CLR,SKC,0.00,WeatherDisplay:10.37,2013-02-13 07:49:00,
2013-02-13 02:54:00,28.9,26.4,28.76,SE,135,2.3,2.3,90,0.00,CLR,SKC,0.00,WeatherDisplay:10.37,2013-02-13 07:54:00,
2013-02-13 02:59:00,29.1,26.6,28.76,SE,135,3.5,3.5,90,0.00,CLR,SKC,0.00,WeatherDisplay:10.37,2013-02-13 07:59:00,
2013-02-13 03:04:00,29.1,26.6,28.76,East,90,3.5,3.5,90,0.00,CLR,SKC,0.00,WeatherDisplay:10.37,2013-02-13 08:04:00,
2013-02-13 03:09:00,29.1,26.3,28.76,East,90,2.3,2.3,89,0.00,CLR,SKC,0.00,WeatherDisplay:10.37,2013-02-13 08:09:00,
2013-02-13 03:14:00,28.9,26.1,28.76,East,90,1.2,0.0,89,0.00,CLR,SKC,0.00,WeatherDisplay:10.37,2013-02-13 08:14:00,
2013-02-13 03:19:00,28.6,25.8,28.76,East,90,0.0,0.0,89,0.00,CLR,SKC,0.00,WeatherDisplay:10.37,2013-02-13 08:19:00,
2013-02-13 03:24:00,28.2,25.1,28.75,East,90,0.0,0.0,88,0.00,CLR,SKC,0.00,WeatherDisplay:10.37,2013-02-13 08:24:00,
2013-02-13 03:29:00,27.7,24.6,28.75,East,90,0.0,0.0,88,0.00,CLR,SKC,0.00,WeatherDisplay:10.37,2013-02-13 08:29:00,
2013-02-13 03:34:00,27.5,24.7,28.75,SE,135,2.3,2.3,89,0.00,CLR,SKC,0.00,WeatherDisplay:10.37,2013-02-13 08:34:00,
2013-02-13 03:39:00,27.9,25.8,28.76,SE,135,2.3,2.3,92,0.00,CLR,SKC,0.00,WeatherDisplay:10.37,2013-02-13 08:39:00,
2013-02-13 03:44:00,28.4,26.4,28.75,SE,135,2.3,0.0,92,0.00,CLR,SKC,0.00,WeatherDisplay:10.37,2013-02-13 08:44:00,
2013-02-13 03:49:00,28.4,26.1,28.75,SE,135,1.2,1.2,91,0.00,CLR,SKC,0.00,WeatherDisplay:10.37,2013-02-13 08:49:00,
2013-02-13 03:54:00,28.6,26.3,28.76,SE,135,0.0,0.0,91,0.00,CLR,SKC,0.00,WeatherDisplay:10.37,2013-02-13 08:54:00,
2013-02-13 03:59:00,28.4,26.1,28.76,SE,135,0.0,0.0,91,0.00,CLR,SKC,0.00,WeatherDisplay:10.37,2013-02-13 08:59:00,
2013-02-13 04:04:00,28.4,25.8,28.75,SE,135,0.0,0.0,90,0.00,CLR,SKC,0.00,WeatherDisplay:10.37,2013-02-13 09:04:00,
2013-02-13 04:09:00,28.2,25.7,28.75,East,90,0.0,0.0,90,0.00,CLR,SKC,0.00,WeatherDisplay:10.37,2013-02-13 09:09:00,
2013-02-13 04:14:00,28.0,25.5,28.76,SE,135,1.2,1.2,90,0.00,CLR,SKC,0.00,WeatherDisplay:10.37,2013-02-13 09:14:00,
2013-02-13 04:19:00,28.4,26.1,28.75,East,90,1.2,0.0,91,0.00,CLR,SKC,0.00,WeatherDisplay:10.37,2013-02-13 09:19:00,
2013-02-13 04:24:00,28.2,25.7,28.76,East,90,0.0,0.0,90,0.00,CLR,SKC,0.00,WeatherDisplay:10.37,2013-02-13 09:24:00,
2013-02-13 04:29:00,28.0,25.5,28.76,North,0,0.0,0.0,90,0.00,CLR,SKC,0.00,WeatherDisplay:10.37,2013-02-13 09:29:00,
2013-02-13 04:34:00,28.0,25.5,28.75,NW,315,3.5,3.5,90,0.00,CLR,SKC,0.00,WeatherDisplay:10.37,2013-02-13 09:34:00,
2013-02-13 04:39:00,28.2,25.7,28.75,NW,315,1.2,0.0,90,0.00,CLR,SKC,0.00,WeatherDisplay:10.37,2013-02-13 09:39:00,
2013-02-13 04:44:00,28.2,25.7,28.75,SE,135,1.2,1.2,90,0.00,CLR,SKC,0.00,WeatherDisplay:10.37,2013-02-13 09:44:00,
2013-02-13 04:49:00,28.4,25.8,28.75,South,180,0.0,0.0,90,0.00,CLR,SKC,0.00,WeatherDisplay:10.37,2013-02-13 09:49:00,
2013-02-13 04:54:00,28.6,26.0,28.75,SE,135,0.0,0.0,90,0.00,CLR,SKC,0.00,WeatherDisplay:10.37,2013-02-13 09:54:00,
2013-02-13 04:59:00,28.4,25.8,28.75,East,90,1.2,0.0,90,0.00,CLR,SKC,0.00,WeatherDisplay:10.37,2013-02-13 09:59:00,
2013-02-13 05:04:00,28.4,25.8,28.75,East,90,1.2,0.0,90,0.00,CLR,SKC,0.00,WeatherDisplay:10.37,2013-02-13 10:04:00,
2013-02-13 05:09:00,28.0,25.2,28.75,East,90,0.0,0.0,89,0.00,CLR,SKC,0.00,WeatherDisplay:10.37,2013-02-13 10:09:00,
2013-02-13 05:14:00,27.5,24.7,28.75,East,90,0.0,0.0,89,0.00,CLR,SKC,0.00,WeatherDisplay:10.37,2013-02-13 10:14:00,
2013-02-13 05:19:00,27.1,24.3,28.75,East,90,0.0,0.0,89,0.00,CLR,SKC,0.00,WeatherDisplay:10.37,2013-02-13 10:19:00,
2013-02-13 05:24:00,27.1,24.3,28.75,East,90,0.0,0.0,89,0.00,CLR,SKC,0.00,WeatherDisplay:10.37,2013-02-13 10:24:00,
2013-02-13 05:29:00,26.8,24.0,28.75,NE,45,0.0,0.0,89,0.00,CLR,SKC,0.00,WeatherDisplay:10.37,2013-02-13 10:29:00,
2013-02-13 05:34:00,26.6,24.1,28.75,NE,45,0.0,0.0,90,0.00,CLR,SKC,0.00,WeatherDisplay:10.37,2013-02-13 10:34:00,
2013-02-13 05:39:00,26.6,24.1,28.75,NE,45,0.0,0.0,90,0.00,CLR,SKC,0.00,WeatherDisplay:10.37,2013-02-13 10:39:00,
2013-02-13 05:44:00,26.4,23.9,28.75,NE,45,0.0,0.0,90,0.00,CLR,SKC,0.00,WeatherDisplay:10.37,2013-02-13 10:44:00,
2013-02-13 05:49:00,26.4,23.9,28.75,NE,45,0.0,0.0,90,0.00,CLR,SKC,0.00,WeatherDisplay:10.37,2013-02-13 10:49:00,
2013-02-13 05:54:00,26.4,24.1,28.75,NE,45,0.0,0.0,91,0.00,CLR,SKC,0.00,WeatherDisplay:10.37,2013-02-13 10:54:00,
2013-02-13 05:59:00,26.6,24.3,28.75,NE,45,0.0,0.0,91,0.00,CLR,SKC,0.00,WeatherDisplay:10.37,2013-02-13 10:59:00,
2013-02-13 06:04:00,26.6,24.3,28.74,NE,45,0.0,0.0,91,0.00,CLR,SKC,0.00,WeatherDisplay:10.37,2013-02-13 11:04:00,
2013-02-13 06:09:00,26.8,24.5,28.74,NE,45,2.3,2.3,91,0.00,CLR,SKC,0.00,WeatherDisplay:10.37,2013-02-13 11:09:00,
2013-02-13 06:14:00,26.8,24.5,28.73,NE,45,1.2,0.0,91,0.00,CLR,SKC,0.00,WeatherDisplay:10.37,2013-02-13 11:14:00,
2013-02-13 06:19:00,27.0,24.9,28.73,NE,45,0.0,0.0,92,0.00,CLR,SKC,0.00,WeatherDisplay:10.37,2013-02-13 11:19:00,
2013-02-13 06:24:00,26.6,24.3,28.73,NE,45,0.0,0.0,91,0.00,CLR,SKC,0.00,WeatherDisplay:10.37,2013-02-13 11:24:00,
2013-02-13 06:29:00,26.4,24.4,28.73,NE,45,0.0,0.0,92,0.00,CLR,SKC,0.00,WeatherDisplay:10.37,2013-02-13 11:29:00,
2013-02-13 06:34:00,26.4,24.4,28.73,NE,45,1.2,0.0,92,0.00,CLR,SKC,0.00,WeatherDisplay:10.37,2013-02-13 11:34:00,
2013-02-13 06:39:00,26.4,24.4,28.72,NE,45,0.0,0.0,92,0.00,CLR,SKC,0.00,WeatherDisplay:10.37,2013-02-13 11:39:00,
2013-02-13 06:44:00,26.2,24.2,28.72,NE,45,0.0,0.0,92,0.00,CLR,SKC,0.00,WeatherDisplay:10.37,2013-02-13 11:44:00,
2013-02-13 06:49:00,26.2,24.2,28.72,NE,45,0.0,0.0,92,0.00,CLR,SKC,0.00,WeatherDisplay:10.37,2013-02-13 11:49:00,
2013-02-13 06:54:00,26.2,24.2,28.72,NE,45,0.0,0.0,92,0.00,CLR,SKC,0.00,WeatherDisplay:10.37,2013-02-13 11:54:00,
2013-02-13 06:59:00,26.2,24.5,28.72,NW,315,1.2,1.2,93,0.00,CLR,SKC,0.00,WeatherDisplay:10.37,2013-02-13 11:59:00,
2013-02-13 07:04:00,26.2,24.5,28.72,NW,315,2.3,2.3,93,0.00,CLR,SKC,0.00,WeatherDisplay:10.37,2013-02-13 12:04:00,
2013-02-13 07:09:00,26.8,25.3,28.71,North,0,1.2,0.0,94,0.00,CLR,SKC,0.00,WeatherDisplay:10.37,2013-02-13 12:09:00,
2013-02-13 07:14:00,27.1,25.6,28.70,NE,45,1.2,0.0,94,0.00,CLR,SKC,0.00,WeatherDisplay:10.37,2013-02-13 12:14:00,
2013-02-13 07:19:00,27.5,26.0,28.71,NE,45,1.2,0.0,94,0.00,CLR,SKC,0.00,WeatherDisplay:10.37,2013-02-13 12:19:00,
2013-02-13 07:24:00,27.9,26.1,28.71,NE,45,0.0,0.0,93,0.00,CLR,SKC,0.00,WeatherDisplay:10.37,2013-02-13 12:24:00,
2013-02-13 07:29:00,28.0,26.3,28.71,North,0,0.0,0.0,93,0.00,CLR,SKC,0.00,WeatherDisplay:10.37,2013-02-13 12:29:00,
2013-02-13 07:34:00,28.4,26.4,28.71,NE,45,0.0,0.0,92,0.00,CLR,SKC,0.00,WeatherDisplay:10.37,2013-02-13 12:34:00,
2013-02-13 07:39:00,28.4,26.4,28.71,NE,45,0.0,0.0,92,0.00,CLR,SKC,0.00,WeatherDisplay:10.37,2013-02-13 12:39:00,
2013-02-13 07:44:00,28.2,25.9,28.70,NE,45,0.0,0.0,91,0.00,CLR,SKC,0.00,WeatherDisplay:10.37,2013-02-13 12:44:00,
2013-02-13 07:49:00,27.9,25.6,28.70,NE,45,0.0,0.0,91,0.00,CLR,SKC,0.00,WeatherDisplay:10.37,2013-02-13 12:49:00,
2013-02-13 07:54:00,27.5,25.2,28.70,NE,45,0.0,0.0,91,0.00,CLR,SKC,0.00,WeatherDisplay:10.37,2013-02-13 12:54:00,
2013-02-13 07:59:00,27.3,25.0,28.69,NE,45,0.0,0.0,91,0.00,CLR,SKC,0.00,WeatherDisplay:10.37,2013-02-13 12:59:00,
2013-02-13 08:04:00,27.3,25.0,28.70,NW,315,1.2,0.0,91,0.00,CLR,SKC,0.00,WeatherDisplay:10.37,2013-02-13 13:04:00,
2013-02-13 08:09:00,27.5,25.5,28.70,North,0,2.3,2.3,92,0.00,CLR,SKC,0.00,WeatherDisplay:10.37,2013-02-13 13:09:00,
2013-02-13 08:14:00,27.7,25.7,28.70,North,0,2.3,2.3,92,0.00,CLR,SKC,0.00,WeatherDisplay:10.37,2013-02-13 13:14:00,
2013-02-13 08:19:00,27.7,25.7,28.69,NW,315,2.3,2.3,92,0.00,CLR,SKC,0.00,WeatherDisplay:10.37,2013-02-13 13:19:00,
2013-02-13 08:24:00,28.2,26.2,28.69,North,0,2.3,0.0,92,0.00,CLR,SKC,0.00,WeatherDisplay:10.37,2013-02-13 13:24:00,
2013-02-13 08:29:00,28.6,26.6,28.69,NE,45,1.2,1.2,92,0.00,CLR,SKC,0.00,WeatherDisplay:10.37,2013-02-13 13:29:00,
2013-02-13 08:34:00,28.6,26.3,28.68,North,0,2.3,2.3,91,0.00,CLR,SKC,0.00,WeatherDisplay:10.37,2013-02-13 13:34:00,
2013-02-13 08:39:00,28.4,26.1,28.68,NE,45,3.5,3.5,91,0.00,CLR,SKC,0.00,WeatherDisplay:10.37,2013-02-13 13:39:00,
2013-02-13 08:44:00,28.2,25.7,28.68,SE,135,4.6,4.6,90,0.00,CLR,SKC,0.00,WeatherDisplay:10.37,2013-02-13 13:44:00,
2013-02-13 08:49:00,28.4,26.1,28.68,NE,45,5.8,5.8,91,0.00,CLR,SKC,0.00,WeatherDisplay:10.37,2013-02-13 13:49:00,
2013-02-13 08:54:00,28.4,26.4,28.68,NE,45,4.6,4.6,92,0.00,CLR,SKC,0.00,WeatherDisplay:10.37,2013-02-13 13:54:00,
2013-02-13 08:59:00,28.8,26.7,28.68,NE,45,3.5,3.5,92,0.00,CLR,SKC,0.00,WeatherDisplay:10.37,2013-02-13 13:59:00,
2013-02-13 09:04:00,28.8,26.7,28.67,North,0,4.6,4.6,92,0.00,CLR,SKC,0.00,WeatherDisplay:10.37,2013-02-13 14:04:00,
2013-02-13 09:09:00,29.5,27.2,28.67,NE,45,8.1,8.1,91,0.00,CLR,SKC,0.00,WeatherDisplay:10.37,2013-02-13 14:09:00,
2013-02-13 09:14:00,30.0,27.7,28.67,NE,45,6.9,6.9,91,0.00,CLR,SKC,0.00,WeatherDisplay:10.37,2013-02-13 14:14:00,
2013-02-13 09:19:00,30.2,27.6,28.66,NE,45,5.8,5.8,90,0.00,CLR,SKC,0.00,WeatherDisplay:10.37,2013-02-13 14:19:00,
2013-02-13 09:24:00,30.4,27.8,28.66,NE,45,5.8,5.8,90,0.00,CLR,SKC,0.00,WeatherDisplay:10.37,2013-02-13 14:24:00,
2013-02-13 09:29:00,31.6,29.3,28.65,NE,45,5.8,5.8,91,0.00,CLR,SKC,0.00,WeatherDisplay:10.37,2013-02-13 14:29:00,
2013-02-13 09:34:00,33.1,30.7,28.66,East,90,3.5,3.5,91,0.00,CLR,SKC,0.00,WeatherDisplay:10.37,2013-02-13 14:34:00,
2013-02-13 09:39:00,34.0,30.8,28.66,North,0,3.5,3.5,88,0.00,CLR,SKC,0.00,WeatherDisplay:10.37,2013-02-13 14:39:00,
2013-02-13 09:44:00,33.4,28.5,28.67,NE,45,6.9,6.9,82,0.00,CLR,SKC,0.00,WeatherDisplay:10.37,2013-02-13 14:44:00,
2013-02-13 09:49:00,32.9,28.6,28.67,NE,45,3.5,0.0,84,0.00,CLR,SKC,0.00,WeatherDisplay:10.37,2013-02-13 14:49:00,
2013-02-13 09:54:00,33.1,29.1,28.68,NE,45,4.6,4.6,85,0.00,CLR,SKC,0.00,WeatherDisplay:10.37,2013-02-13 14:54:00,
2013-02-13 09:59:00,33.3,29.2,28.68,NE,45,4.6,4.6,85,0.00,CLR,SKC,0.00,WeatherDisplay:10.37,2013-02-13 14:59:00,
2013-02-13 10:04:00,33.3,29.2,28.69,NE,45,3.5,3.5,85,0.00,CLR,SKC,0.00,WeatherDisplay:10.37,2013-02-13 15:04:00,
2013-02-13 10:09:00,34.2,29.8,28.69,SE,135,3.5,0.0,84,0.00,CLR,SKC,0.00,WeatherDisplay:10.37,2013-02-13 15:09:00,
2013-02-13 10:14:00,34.7,30.1,28.69,NE,45,2.3,2.3,83,0.00,CLR,SKC,0.00,WeatherDisplay:10.37,2013-02-13 15:14:00,
2013-02-13 10:19:00,35.1,30.4,28.68,East,90,1.2,0.0,83,0.00,CLR,SKC,0.00,WeatherDisplay:10.37,2013-02-13 15:19:00,
2013-02-13 10:24:00,35.6,30.6,28.68,East,90,1.2,0.0,82,0.00,CLR,SKC,0.00,WeatherDisplay:10.37,2013-02-13 15:24:00,
2013-02-13 10:29:00,36.3,31.0,28.68,East,90,1.6,0.0,81,0.00,CLR,SKC,0.00,WeatherDisplay:10.37,2013-02-13 15:29:00,
2013-02-13 10:34:00,36.7,31.1,28.68,North,0,1.2,0.0,80,0.00,CLR,SKC,0.00,WeatherDisplay:10.37,2013-02-13 15:34:00,
2013-02-13 10:39:00,36.7,31.1,28.67,NE,45,3.5,3.5,80,0.00,CLR,SKC,0.00,WeatherDisplay:10.37,2013-02-13 15:39:00,
2013-02-13 10:44:00,36.7,31.1,28.67,NNE,22,3.5,3.5,80,0.00,CLR,SKC,0.00,WeatherDisplay:10.37,2013-02-13 15:44:00,
2013-02-13 10:49:00,36.9,30.3,28.66,NE,45,6.9,6.9,77,0.00,CLR,SKC,0.00,WeatherDisplay:10.37,2013-02-13 15:49:00,
2013-02-13 10:54:00,37.4,30.8,28.66,NW,315,5.8,5.8,77,0.00,CLR,SKC,0.00,WeatherDisplay:10.37,2013-02-13 15:54:00,
2013-02-13 10:59:00,37.9,30.7,28.66,NE,45,5.8,5.8,75,0.00,CLR,SKC,0.00,WeatherDisplay:10.37,2013-02-13 15:59:00,
2013-02-13 11:04:00,38.5,31.6,28.66,NE,45,5.8,5.8,76,0.00,CLR,SKC,0.00,WeatherDisplay:10.37,2013-02-13 16:04:00,
2013-02-13 11:09:00,39.6,31.3,28.66,North,0,3.5,3.5,72,0.00,CLR,SKC,0.00,WeatherDisplay:10.37,2013-02-13 16:09:00,
2013-02-13 11:14:00,39.4,31.1,28.66,NNW,338,4.6,4.6,72,0.00,CLR,SKC,0.00,WeatherDisplay:10.37,2013-02-13 16:14:00,
2013-02-13 11:19:00,39.2,30.9,28.66,NW,315,5.8,5.8,72,0.00,CLR,SKC,0.00,WeatherDisplay:10.37,2013-02-13 16:19:00,
2013-02-13 11:24:00,39.0,30.4,28.65,NW,315,6.9,6.9,71,0.00,CLR,SKC,0.00,WeatherDisplay:10.37,2013-02-13 16:24:00,
2013-02-13 11:29:00,38.7,30.1,28.65,North,0,5.4,5.4,71,0.00,CLR,SKC,0.00,WeatherDisplay:10.37,2013-02-13 16:29:00,
2013-02-13 11:34:00,38.8,30.2,28.64,North,0,4.6,4.6,71,0.00,CLR,SKC,0.00,WeatherDisplay:10.37,2013-02-13 16:34:00,
2013-02-13 11:39:00,38.8,29.5,28.65,North,0,6.9,6.9,69,0.00,CLR,SKC,0.00,WeatherDisplay:10.37,2013-02-13 16:39:00,
2013-02-13 11:44:00,39.2,30.2,28.65,NW,315,5.8,5.8,70,0.00,CLR,SKC,0.00,WeatherDisplay:10.37,2013-02-13 16:44:00,
2013-02-13 11:49:00,39.4,30.1,28.65,NNE,15,2.3,2.3,69,0.00,CLR,SKC,0.00,WeatherDisplay:10.37,2013-02-13 16:49:00,
2013-02-13 11:54:00,39.9,30.9,28.66,North,0,3.5,3.5,70,0.00,CLR,SKC,0.00,WeatherDisplay:10.37,2013-02-13 16:54:00,
2013-02-13 11:59:00,40.3,30.9,28.66,NW,315,3.8,3.8,69,0.00,CLR,SKC,0.00,WeatherDisplay:10.37,2013-02-13 16:59:00,
2013-02-13 12:04:00,40.3,30.9,28.65,NW,315,3.5,3.5,69,0.00,CLR,SKC,0.00,WeatherDisplay:10.37,2013-02-13 17:04:00,
2013-02-13 12:09:00,40.1,30.7,28.65,NW,315,3.5,3.5,69,0.00,CLR,SKC,0.00,WeatherDisplay:10.37,2013-02-13 17:09:00,
2013-02-13 12:14:00,40.1,31.1,28.65,NW,315,4.6,4.6,70,0.00,CLR,SKC,0.00,WeatherDisplay:10.37,2013-02-13 17:14:00,
2013-02-13 12:19:00,40.1,30.7,28.64,NW,315,6.9,6.9,69,0.00,CLR,SKC,0.00,WeatherDisplay:10.37,2013-02-13 17:19:00,
2013-02-13 12:24:00,40.1,30.7,28.63,North,0,6.9,6.9,69,0.00,CLR,SKC,0.00,WeatherDisplay:10.37,2013-02-13 17:24:00,
2013-02-13 12:29:00,40.3,30.9,28.63,North,0,7.6,7.6,69,0.00,CLR,SKC,0.00,WeatherDisplay:10.37,2013-02-13 17:29:00,
2013-02-13 12:34:00,40.3,30.9,28.62,North,0,5.8,5.8,69,0.00,CLR,SKC,0.00,WeatherDisplay:10.37,2013-02-13 17:34:00,
2013-02-13 12:39:00,40.5,31.1,28.63,North,0,4.6,4.6,69,0.00,CLR,SKC,0.00,WeatherDisplay:10.37,2013-02-13 17:39:00,
2013-02-13 12:44:00,40.1,30.4,28.62,NW,315,5.8,5.8,68,0.00,CLR,SKC,0.00,WeatherDisplay:10.37,2013-02-13 17:44:00,
2013-02-13 12:49:00,40.1,30.7,28.62,NW,315,3.5,3.5,69,0.00,CLR,SKC,0.00,WeatherDisplay:10.37,2013-02-13 17:49:00,
2013-02-13 12:54:00,39.9,30.6,28.61,North,0,6.9,6.9,69,0.00,CLR,SKC,0.00,WeatherDisplay:10.37,2013-02-13 17:54:00,
2013-02-13 12:59:00,39.7,30.4,28.61,NNE,22,6.9,6.9,69,0.00,CLR,SKC,0.00,WeatherDisplay:10.37,2013-02-13 17:59:00,
2013-02-13 13:04:00,39.9,30.6,28.61,North,0,3.5,3.5,69,0.00,CLR,SKC,0.00,WeatherDisplay:10.37,2013-02-13 18:04:00,
2013-02-13 13:09:00,39.9,30.6,28.60,North,0,8.1,8.1,69,0.00,CLR,SKC,0.00,WeatherDisplay:10.37,2013-02-13 18:09:00,
2013-02-13 13:14:00,39.9,30.6,28.60,North,0,5.8,5.8,69,0.00,CLR,SKC,0.00,WeatherDisplay:10.37,2013-02-13 18:14:00,
2013-02-13 13:19:00,40.1,30.4,28.60,NW,315,5.8,5.8,68,0.00,CLR,SKC,0.00,WeatherDisplay:10.37,2013-02-13 18:19:00,
2013-02-13 13:24:00,40.3,30.6,28.60,NE,45,6.9,6.9,68,0.00,CLR,SKC,0.00,WeatherDisplay:10.37,2013-02-13 18:24:00,
2013-02-13 13:29:00,40.3,30.2,28.60,NW,315,2.3,0.0,67,0.00,CLR,SKC,0.00,WeatherDisplay:10.37,2013-02-13 18:29:00,
2013-02-13 13:34:00,40.3,30.6,28.60,NE,45,1.2,0.0,68,0.00,CLR,SKC,0.00,WeatherDisplay:10.37,2013-02-13 18:34:00,
2013-02-13 13:39:00,40.3,30.6,28.60,North,0,3.5,0.0,68,0.00,CLR,SKC,0.00,WeatherDisplay:10.37,2013-02-13 18:39:00,
2013-02-13 13:44:00,40.5,30.7,28.60,North,0,2.3,0.0,68,0.00,CLR,SKC,0.00,WeatherDisplay:10.37,2013-02-13 18:44:00,
2013-02-13 13:49:00,40.6,30.9,28.60,North,0,4.6,4.6,68,0.00,CLR,SKC,0.00,WeatherDisplay:10.37,2013-02-13 18:49:00,
2013-02-13 13:54:00,40.5,30.7,28.60,NW,315,5.8,5.8,68,0.00,CLR,SKC,0.00,WeatherDisplay:10.37,2013-02-13 18:54:00,
2013-02-13 13:59:00,40.3,30.6,28.59,North,0,4.6,4.6,68,0.00,CLR,SKC,0.00,WeatherDisplay:10.37,2013-02-13 18:59:00,
2013-02-13 14:04:00,40.3,30.9,28.60,West,270,4.6,4.6,69,0.00,CLR,SKC,0.00,WeatherDisplay:10.37,2013-02-13 19:04:00,
2013-02-13 14:09:00,40.3,30.9,28.59,NW,315,3.5,3.5,69,0.00,CLR,SKC,0.00,WeatherDisplay:10.37,2013-02-13 19:09:00,
2013-02-13 14:14:00,40.1,31.1,28.59,NW,315,4.6,4.6,70,0.00,CLR,SKC,0.00,WeatherDisplay:10.37,2013-02-13 19:14:00,
2013-02-13 14:19:00,39.9,31.3,28.59,NW,315,5.8,5.8,71,0.00,CLR,SKC,0.00,WeatherDisplay:10.37,2013-02-13 19:19:00,
2013-02-13 14:24:00,39.9,31.3,28.59,NW,315,4.6,4.6,71,0.00,CLR,SKC,0.00,WeatherDisplay:10.37,2013-02-13 19:24:00,
2013-02-13 14:29:00,39.6,31.3,28.58,NW,315,8.1,8.1,72,0.00,CLR,SKC,0.00,WeatherDisplay:10.37,2013-02-13 19:29:00,
2013-02-13 14:34:00,39.6,31.6,28.58,North,0,8.1,8.1,73,0.00,CLR,SKC,0.00,WeatherDisplay:10.37,2013-02-13 19:34:00,
2013-02-13 14:39:00,39.7,31.8,28.58,SE,135,3.5,0.0,73,0.00,CLR,SKC,0.00,WeatherDisplay:10.37,2013-02-13 19:39:00,
2013-02-13 14:44:00,40.1,32.1,28.58,NW,315,3.5,3.5,73,0.00,CLR,SKC,0.00,WeatherDisplay:10.37,2013-02-13 19:44:00,
2013-02-13 14:49:00,39.9,32.0,28.58,NW,315,5.8,5.8,73,0.00,CLR,SKC,0.00,WeatherDisplay:10.37,2013-02-13 19:49:00,
2013-02-13 14:54:00,39.6,32.0,28.58,NW,315,5.8,5.8,74,0.00,CLR,SKC,0.00,WeatherDisplay:10.37,2013-02-13 19:54:00,
2013-02-13 14:59:00,39.2,31.9,28.58,NW,315,5.8,5.8,75,0.00,CLR,SKC,0.00,WeatherDisplay:10.37,2013-02-13 19:59:00,
2013-02-13 15:04:00,39.2,31.9,28.58,NW,315,4.6,4.6,75,0.00,CLR,SKC,0.00,WeatherDisplay:10.37,2013-02-13 20:04:00,
2013-02-13 15:09:00,38.8,32.2,28.58,North,0,6.9,6.9,77,0.00,CLR,SKC,0.00,WeatherDisplay:10.37,2013-02-13 20:09:00,
2013-02-13 15:14:00,38.7,32.7,28.57,NW,315,8.1,8.1,79,0.00,CLR,SKC,0.00,WeatherDisplay:10.37,2013-02-13 20:14:00,
2013-02-13 15:19:00,38.5,32.8,28.58,NNE,14,10.4,10.4,80,0.00,CLR,SKC,0.00,WeatherDisplay:10.37,2013-02-13 20:19:00,
2013-02-13 15:24:00,37.9,32.9,28.58,NW,315,10.4,10.4,82,0.00,CLR,SKC,0.00,WeatherDisplay:10.37,2013-02-13 20:24:00,
2013-02-13 15:29:00,37.6,33.2,28.58,NW,315,9.2,9.2,84,0.00,CLR,SKC,0.00,WeatherDisplay:10.37,2013-02-13 20:29:00,
2013-02-13 15:34:00,37.4,33.3,28.58,NW,315,6.9,6.9,85,0.00,CLR,SKC,0.00,WeatherDisplay:10.37,2013-02-13 20:34:00,
2013-02-13 15:39:00,37.0,33.5,28.59,West,270,9.2,9.2,87,0.00,CLR,SKC,0.00,WeatherDisplay:10.37,2013-02-13 20:39:00,
2013-02-13 15:44:00,36.5,33.8,28.59,NW,315,9.2,9.2,90,0.00,CLR,SKC,0.00,WeatherDisplay:10.37,2013-02-13 20:44:00,
2013-02-13 15:49:00,36.3,33.9,28.59,NW,315,4.6,4.6,91,0.00,CLR,SKC,0.00,WeatherDisplay:10.37,2013-02-13 20:49:00,
2013-02-13 15:54:00,36.0,33.6,28.60,North,0,2.3,0.0,91,0.00,CLR,SKC,0.00,WeatherDisplay:10.37,2013-02-13 20:54:00,
2013-02-13 15:59:00,35.4,33.3,28.60,North,8,1.2,0.0,92,0.00,CLR,SKC,0.00,WeatherDisplay:10.37,2013-02-13 20:59:00,
2013-02-13 16:04:00,35.2,33.1,28.60,North,0,0.0,0.0,92,0.00,CLR,SKC,0.00,WeatherDisplay:10.37,2013-02-13 21:04:00,
2013-02-13 16:09:00,34.2,32.9,28.60,North,0,1.2,0.0,95,0.00,CLR,SKC,0.00,WeatherDisplay:10.37,2013-02-13 21:09:00,
2013-02-13 16:14:00,34.0,33.0,28.59,North,0,0.0,0.0,96,0.00,CLR,SKC,0.00,WeatherDisplay:10.37,2013-02-13 21:14:00,
2013-02-13 16:19:00,33.8,32.8,28.60,North,0,0.0,0.0,96,0.00,CLR,SKC,0.00,WeatherDisplay:10.37,2013-02-13 21:19:00,
2013-02-13 16:24:00,33.6,32.9,28.60,North,0,0.0,0.0,97,0.00,CLR,SKC,0.00,WeatherDisplay:10.37,2013-02-13 21:24:00,
2013-02-13 16:29:00,33.4,32.7,28.60,North,0,0.0,0.0,97,0.00,CLR,SKC,0.00,WeatherDisplay:10.37,2013-02-13 21:29:00,
2013-02-13 16:34:00,33.3,32.8,28.60,North,0,0.0,0.0,98,0.00,CLR,SKC,0.00,WeatherDisplay:10.37,2013-02-13 21:34:00,
2013-02-13 16:39:00,33.3,33.3,28.60,North,0,1.2,0.0,100,0.00,,SKC,0.00,WeatherDisplay:10.37,2013-02-13 21:39:00,
2013-02-13 16:44:00,33.1,33.1,28.60,North,0,0.0,0.0,100,0.00,,SKC,0.00,WeatherDisplay:10.37,2013-02-13 21:44:00,
2013-02-13 16:49:00,33.1,33.1,28.60,South,180,0.0,0.0,100,0.00,,SKC,0.00,WeatherDisplay:10.37,2013-02-13 21:49:00,
2013-02-13 16:54:00,32.9,32.9,28.60,North,8,0.0,0.0,100,0.00,,SKC,0.00,WeatherDisplay:10.37,2013-02-13 21:54:00,
2013-02-13 16:59:00,32.9,32.9,28.60,North,0,1.2,0.0,100,0.00,,SKC,0.00,WeatherDisplay:10.37,2013-02-13 21:59:00,
2013-02-13 17:04:00,32.9,32.9,28.60,North,0,0.0,0.0,100,0.00,,SKC,0.00,WeatherDisplay:10.37,2013-02-13 22:04:00,
2013-02-13 17:09:00,32.9,32.9,28.60,North,0,1.2,0.0,100,0.00,,SKC,0.00,WeatherDisplay:10.37,2013-02-13 22:09:00,
2013-02-13 17:14:00,32.7,32.7,28.60,NNE,15,1.2,1.2,100,0.00,,SKC,0.00,WeatherDisplay:10.37,2013-02-13 22:14:00,
2013-02-13 17:19:00,32.7,32.7,28.60,NW,315,1.2,0.0,100,0.00,,SKC,0.00,WeatherDisplay:10.37,2013-02-13 22:19:00,
2013-02-13 17:24:00,32.9,32.9,28.60,NW,315,2.3,2.3,100,0.00,,SKC,0.00,WeatherDisplay:10.37,2013-02-13 22:24:00,
2013-02-13 17:29:00,32.7,32.7,28.60,NNE,12,3.5,3.5,100,0.00,,SKC,0.00,WeatherDisplay:10.37,2013-02-13 22:29:00,
2013-02-13 17:34:00,32.7,32.7,28.60,North,0,2.3,2.3,100,0.00,,SKC,0.00,WeatherDisplay:10.37,2013-02-13 22:34:00,
2013-02-13 17:39:00,32.7,32.7,28.61,North,0,3.5,0.0,100,0.00,,SKC,0.00,WeatherDisplay:10.37,2013-02-13 22:39:00,
2013-02-13 17:44:00,32.7,32.7,28.60,North,0,3.5,3.5,100,0.00,,SKC,0.00,WeatherDisplay:10.37,2013-02-13 22:44:00,
2013-02-13 17:49:00,32.7,32.7,28.61,North,0,2.3,2.3,100,0.00,,SKC,0.00,WeatherDisplay:10.37,2013-02-13 22:49:00,
2013-02-13 17:54:00,32.7,32.7,28.61,North,0,4.6,4.6,100,0.00,,SKC,0.00,WeatherDisplay:10.37,2013-02-13 22:54:00,
2013-02-13 17:59:00,32.7,32.7,28.61,North,0,5.8,5.8,100,0.00,,SKC,0.00,WeatherDisplay:10.37,2013-02-13 22:59:00,
2013-02-13 18:04:00,32.7,32.7,28.61,North,0,3.5,3.5,100,0.00,,SKC,0.00,WeatherDisplay:10.37,2013-02-13 23:04:00,
2013-02-13 18:09:00,32.5,32.5,28.61,North,0,5.8,5.8,100,0.00,,SKC,0.00,WeatherDisplay:10.37,2013-02-13 23:09:00,
2013-02-13 18:14:00,32.5,32.5,28.61,North,0,4.6,4.6,100,0.00,,SKC,0.00,WeatherDisplay:10.37,2013-02-13 23:14:00,
2013-02-13 18:19:00,32.5,32.5,28.62,North,0,3.5,3.5,100,0.00,,SKC,0.00,WeatherDisplay:10.37,2013-02-13 23:19:00,
2013-02-13 18:24:00,32.5,32.5,28.62,North,0,3.5,3.5,100,0.00,,SKC,0.00,WeatherDisplay:10.37,2013-02-13 23:24:00,
2013-02-13 18:29:00,32.4,32.4,28.62,North,0,2.3,2.3,100,0.00,,SKC,0.00,WeatherDisplay:10.37,2013-02-13 23:29:00,
2013-02-13 18:34:00,32.4,32.4,28.62,North,0,3.5,3.5,100,0.00,,SKC,0.00,WeatherDisplay:10.37,2013-02-13 23:34:00,
2013-02-13 18:39:00,32.4,32.4,28.63,North,0,3.5,3.5,100,0.00,,SKC,0.00,WeatherDisplay:10.37,2013-02-13 23:39:00,
2013-02-13 18:44:00,32.4,32.4,28.63,North,0,2.3,2.3,100,0.00,,SKC,0.00,WeatherDisplay:10.37,2013-02-13 23:44:00,
2013-02-13 18:49:00,32.4,32.4,28.63,North,0,2.3,0.0,100,0.00,,SKC,0.00,WeatherDisplay:10.37,2013-02-13 23:49:00,
2013-02-13 18:54:00,32.2,32.2,28.63,North,0,1.2,1.2,100,0.00,,SKC,0.00,WeatherDisplay:10.37,2013-02-13 23:54:00,
2013-02-13 18:59:00,32.2,32.2,28.63,North,0,2.3,2.3,100,0.00,,SKC,0.00,WeatherDisplay:10.37,2013-02-13 23:59:00,
2013-02-13 19:04:00,32.2,32.2,28.64,North,0,2.3,2.3,100,0.00,,SKC,0.00,WeatherDisplay:10.37,2013-02-14 00:04:00,
2013-02-13 19:09:00,32.2,32.2,28.64,North,0,3.5,0.0,100,0.00,,SKC,0.00,WeatherDisplay:10.37,2013-02-14 00:09:00,
2013-02-13 19:14:00,32.2,32.2,28.64,North,0,1.2,1.2,100,0.00,,SKC,0.00,WeatherDisplay:10.37,2013-02-14 00:14:00,
2013-02-13 19:19:00,32.2,32.2,28.64,North,0,1.2,0.0,100,0.00,,SKC,0.00,WeatherDisplay:10.37,2013-02-14 00:19:00,
2013-02-13 19:24:00,32.2,32.2,28.64,North,0,1.2,0.0,100,0.00,,SKC,0.00,WeatherDisplay:10.37,2013-02-14 00:24:00,
2013-02-13 19:29:00,32.2,32.2,28.64,North,0,1.2,0.0,100,0.00,,SKC,0.00,WeatherDisplay:10.37,2013-02-14 00:29:00,
2013-02-13 19:34:00,32.2,32.2,28.65,North,0,2.3,0.0,100,0.00,,SKC,0.00,WeatherDisplay:10.37,2013-02-14 00:34:00,
2013-02-13 19:39:00,32.2,32.2,28.65,North,0,1.2,0.0,100,0.00,,SKC,0.00,WeatherDisplay:10.37,2013-02-14 00:39:00,
2013-02-13 19:44:00,32.2,32.2,28.65,North,0,3.5,0.0,100,0.00,,SKC,0.00,WeatherDisplay:10.37,2013-02-14 00:44:00,
2013-02-13 19:49:00,32.2,32.2,28.65,North,0,2.3,2.3,100,0.00,,SKC,0.00,WeatherDisplay:10.37,2013-02-14 00:49:00,
2013-02-13 19:54:00,32.0,32.0,28.65,North,0,1.2,0.0,100,0.00,,SKC,0.00,WeatherDisplay:10.37,2013-02-14 00:54:00,
2013-02-13 19:59:00,32.0,32.0,28.66,North,0,2.3,0.0,100,0.00,,SKC,0.00,WeatherDisplay:10.37,2013-02-14 00:59:00,
2013-02-13 20:04:00,32.0,32.0,28.66,North,0,3.5,3.5,100,0.00,,SKC,0.00,WeatherDisplay:10.37,2013-02-14 01:04:00,
2013-02-13 20:09:00,32.0,32.0,28.66,North,0,3.5,0.0,100,0.00,,SKC,0.00,WeatherDisplay:10.37,2013-02-14 01:09:00,
2013-02-13 20:14:00,32.0,32.0,28.66,North,0,3.5,3.5,100,0.00,,SKC,0.00,WeatherDisplay:10.37,2013-02-14 01:14:00,
2013-02-13 20:19:00,32.0,32.0,28.67,North,0,3.5,3.5,100,0.00,,SKC,0.00,WeatherDisplay:10.37,2013-02-14 01:19:00,
2013-02-13 20:24:00,32.0,32.0,28.67,North,0,3.5,3.5,100,0.00,,SKC,0.00,WeatherDisplay:10.37,2013-02-14 01:24:00,
2013-02-13 20:29:00,31.8,31.8,28.67,North,0,3.5,3.5,100,0.00,,SKC,0.00,WeatherDisplay:10.37,2013-02-14 01:29:00,
2013-02-13 20:34:00,31.8,31.8,28.67,North,0,3.5,3.5,100,0.00,,SKC,0.00,WeatherDisplay:10.37,2013-02-14 01:34:00,
2013-02-13 20:39:00,31.8,31.8,28.67,North,0,4.6,4.6,100,0.00,,SKC,0.00,WeatherDisplay:10.37,2013-02-14 01:39:00,
2013-02-13 20:44:00,31.8,31.8,28.67,North,0,2.3,0.0,100,0.00,,SKC,0.00,WeatherDisplay:10.37,2013-02-14 01:44:00,
2013-02-13 20:49:00,31.6,31.6,28.67,North,0,0.0,0.0,100,0.00,,SKC,0.00,WeatherDisplay:10.37,2013-02-14 01:49:00,
2013-02-13 20:54:00,31.6,31.6,28.68,North,0,0.0,0.0,100,0.00,,SKC,0.00,WeatherDisplay:10.37,2013-02-14 01:54:00,
2013-02-13 20:59:00,31.6,31.6,28.68,North,0,3.5,3.5,100,0.00,,SKC,0.00,WeatherDisplay:10.37,2013-02-14 01:59:00,
2013-02-13 21:04:00,31.6,31.6,28.68,North,0,3.5,3.5,100,0.00,,SKC,0.00,WeatherDisplay:10.37,2013-02-14 02:04:00,
2013-02-13 21:09:00,31.6,31.6,28.68,North,0,3.5,3.5,100,0.00,,SKC,0.00,WeatherDisplay:10.37,2013-02-14 02:09:00,
2013-02-13 21:14:00,31.6,31.6,28.68,North,0,3.5,3.5,100,0.00,,SKC,0.00,WeatherDisplay:10.37,2013-02-14 02:14:00,
2013-02-13 21:19:00,31.5,31.5,28.68,North,0,3.5,3.5,100,0.00,,SKC,0.00,WeatherDisplay:10.37,2013-02-14 02:19:00,
2013-02-13 21:24:00,31.5,31.5,28.68,North,0,2.3,2.3,100,0.00,,SKC,0.00,WeatherDisplay:10.37,2013-02-14 02:24:00,
2013-02-13 21:29:00,31.5,31.5,28.69,North,0,3.5,3.5,100,0.00,,SKC,0.00,WeatherDisplay:10.37,2013-02-14 02:29:00,
2013-02-13 21:34:00,31.3,31.3,28.69,North,0,2.3,2.3,100,0.00,,SKC,0.00,WeatherDisplay:10.37,2013-02-14 02:34:00,
2013-02-13 21:39:00,31.1,31.1,28.70,North,0,2.2,2.2,100,0.00,,SKC,0.00,WeatherDisplay:10.37,2013-02-14 02:39:00,
2013-02-13 21:44:00,30.9,30.9,28.70,North,0,2.3,0.0,100,0.00,,SKC,0.00,WeatherDisplay:10.37,2013-02-14 02:44:00,
2013-02-13 21:49:00,30.7,30.7,28.69,North,0,0.0,0.0,100,0.00,,SKC,0.00,WeatherDisplay:10.37,2013-02-14 02:49:00,
2013-02-13 21:54:00,30.6,30.6,28.70,North,0,0.0,0.0,100,0.00,,SKC,0.00,WeatherDisplay:10.37,2013-02-14 02:54:00,
2013-02-13 21:59:00,30.4,30.4,28.70,North,0,1.2,0.0,100,0.00,,SKC,0.00,WeatherDisplay:10.37,2013-02-14 02:59:00,
2013-02-13 22:04:00,30.4,30.4,28.70,North,0,0.0,0.0,100,0.00,,SKC,0.00,WeatherDisplay:10.37,2013-02-14 03:04:00,
2013-02-13 22:09:00,30.0,30.0,28.70,North,0,0.0,0.0,100,0.00,,SKC,0.00,WeatherDisplay:10.37,2013-02-14 03:09:00,
2013-02-13 22:14:00,29.8,29.8,28.70,North,0,0.0,0.0,100,0.00,,SKC,0.00,WeatherDisplay:10.37,2013-02-14 03:14:00,
2013-02-13 22:19:00,29.8,29.8,28.70,North,0,2.3,0.0,100,0.00,,SKC,0.00,WeatherDisplay:10.37,2013-02-14 03:19:00,
2013-02-13 22:24:00,29.8,29.8,28.71,North,0,2.3,2.3,100,0.00,,SKC,0.00,WeatherDisplay:10.37,2013-02-14 03:24:00,
2013-02-13 22:29:00,29.7,29.7,28.71,North,0,1.2,0.0,100,0.00,,SKC,0.00,WeatherDisplay:10.37,2013-02-14 03:29:00,
2013-02-13 22:34:00,29.5,29.5,28.71,North,0,1.2,0.0,100,0.00,,SKC,0.00,WeatherDisplay:10.37,2013-02-14 03:34:00,
2013-02-13 22:39:00,29.3,29.3,28.71,North,0,1.2,0.0,100,0.00,,SKC,0.00,WeatherDisplay:10.37,2013-02-14 03:39:00,
2013-02-13 22:44:00,29.1,29.1,28.71,North,0,1.2,1.2,100,0.00,,SKC,0.00,WeatherDisplay:10.37,2013-02-14 03:44:00,
2013-02-13 22:49:00,29.1,29.1,28.72,North,0,1.2,0.0,100,0.00,,SKC,0.00,WeatherDisplay:10.37,2013-02-14 03:49:00,
2013-02-13 22:54:00,29.1,29.1,28.72,North,0,1.2,0.0,100,0.00,,SKC,0.00,WeatherDisplay:10.37,2013-02-14 03:54:00,
2013-02-13 22:59:00,29.1,29.1,28.72,North,0,1.2,0.0,100,0.00,,SKC,0.00,WeatherDisplay:10.37,2013-02-14 03:59:00,
2013-02-13 23:05:00,29.1,29.1,28.72,North,0,0.0,0.0,100,0.00,,SKC,0.00,WeatherDisplay:10.37,2013-02-14 04:05:00,
2013-02-13 23:10:00,28.9,28.9,28.72,North,0,0.0,0.0,100,0.00,,SKC,0.00,WeatherDisplay:10.37,2013-02-14 04:10:00,
2013-02-13 23:15:00,28.9,28.9,28.72,North,0,1.2,0.0,100,0.00,,SKC,0.00,WeatherDisplay:10.37,2013-02-14 04:15:00,
2013-02-13 23:20:00,28.9,28.9,28.72,North,0,3.5,3.5,100,0.00,,SKC,0.00,WeatherDisplay:10.37,2013-02-14 04:20:00,
2013-02-13 23:25:00,28.9,28.9,28.72,North,0,1.2,0.0,100,0.00,,SKC,0.00,WeatherDisplay:10.37,2013-02-14 04:25:00,
2013-02-13 23:30:00,28.9,28.9,28.72,North,0,0.0,0.0,100,0.00,,SKC,0.00,WeatherDisplay:10.37,2013-02-14 04:30:00,
2013-02-13 23:35:00,28.8,28.8,28.73,North,0,0.0,0.0,100,0.00,,SKC,0.00,WeatherDisplay:10.37,2013-02-14 04:35:00,
2013-02-13 23:40:00,28.9,28.9,28.73,North,0,0.0,0.0,100,0.00,,SKC,0.00,WeatherDisplay:10.37,2013-02-14 04:40:00,
2013-02-13 23:45:00,28.9,28.9,28.74,North,0,2.3,2.3,100,0.00,,SKC,0.00,WeatherDisplay:10.37,2013-02-14 04:45:00,
2013-02-13 23:50:00,28.9,28.9,28.74,North,0,1.2,0.0,100,0.00,,SKC,0.00,WeatherDisplay:10.37,2013-02-14 04:50:00,
2013-02-13 23:55:00,28.9,28.9,28.74,North,0,1.2,0.0,100,0.00,,SKC,0.00,WeatherDisplay:10.37,2013-02-14 04:55:00,